Flag for India Weather past 2 weeks in Tiruvarur, Tamil Nadu, India

Now
79 °F

Passing clouds.


Feels Like: 82 °F
Forecast: 79 / 94 °F
Wind: 3 mph from Southwest

Location: Tiruchchirapalli

Current Time: Sep 3, 2014 at 5:31:26 AM

Latest Report: Sep 3, 2014 at 4:40 AM


Visibility: 4 mi

Pressure: 29.77 "Hg

Humidity: 84%

Dew point: 73 °F

Location of TiruvarurLocation

Historic Weather in Tiruvarur — Graph

°F

Tiruvarur temperature yesterday

Maximum temperature yesterday: 100 °F (at 2:40 PM)
Minimum temperature yesterday: 79 °F (at 5:40 AM)
Average temperature yesterday: 88 °F

Past Weeks' High & Low Weather Summary

 TemperatureHumidityPressure
High100 °F (Sep 2, 2:40 PM)94% (Aug 19, 3:40 AM)29.86 "Hg (Aug 19, 3:40 AM)
Low75 °F (Aug 19, 3:40 AM)39% (Aug 26, 3:10 PM)29.59 "Hg (Aug 21, 3:40 PM)
Average87 °F64%29.72 "Hg
* Reported Aug 19 3:40 AM — Sep 3 4:10 AM, Tiruvarur, Weather by CustomWeather, © 2014

Note: Actual official high and low records may vary slightly from our data, if they occured in-between our weather recording intervals... More about our weather records

Advertising

Tiruvarur weather history for previous 24 hours

 ConditionsComfort  
Time TempWeatherWind HumidityBarometerVisibility
4:10 AM
Sep 3
79 °FPassing clouds.3 mph84%29.77 "Hg4 mi
3:40 AM79 °FPassing clouds.6 mph84%29.77 "Hg4 mi
3:10 AM79 °FPartly cloudy.7 mph84%29.77 "Hg4 mi
2:40 AM79 °FPartly cloudy.6 mph84%29.77 "Hg4 mi
2:10 AM81 °FPassing clouds.5 mph84%29.77 "Hg4 mi
1:40 AM81 °FPassing clouds.6 mph84%29.77 "Hg4 mi
1:10 AM81 °FPassing clouds.5 mph84%29.77 "Hg4 mi
12:10 AM81 °FPassing clouds.5 mph84%29.77 "Hg4 mi
11:40 PM
Sep 2
81 °FPassing clouds.6 mph84%29.77 "Hg4 mi
11:10 PM82 °FPassing clouds.6 mph79%29.77 "Hg4 mi
10:40 PM82 °FPartly cloudy.No wind79%29.80 "Hg4 mi
10:10 PM82 °FPartly cloudy.3 mph79%29.80 "Hg4 mi
9:10 PM81 °FRain. Partly cloudy.9 mph84%29.77 "Hg2 mi
8:40 PM86 °FPartly cloudy.6 mph70%29.77 "Hg4 mi
8:10 PM86 °FPartly cloudy.3 mph70%29.74 "Hg4 mi
7:40 PM86 °FPartly cloudy.7 mph70%29.71 "Hg4 mi
7:10 PM86 °FPartly cloudy.9 mph70%29.71 "Hg4 mi
6:40 PM90 °FBroken clouds.7 mph59%29.68 "Hg4 mi
6:10 PM91 °FBroken clouds.7 mph56%29.68 "Hg4 mi
5:10 PM97 °FScattered clouds.5 mph47%29.65 "Hg4 mi
4:40 PM97 °FScattered clouds.9 mph47%29.65 "Hg4 mi
4:10 PM97 °FScattered clouds.8 mph47%29.65 "Hg5 mi
3:40 PM99 °FScattered clouds.2 mph44%29.65 "Hg5 mi
2:40 PM100 °FScattered clouds.3 mph42%29.68 "Hg5 mi
2:10 PM99 °FScattered clouds.5 mph44%29.68 "Hg5 mi
1:40 PM99 °FScattered clouds.3 mph44%29.68 "Hg5 mi
1:10 PM97 °FScattered clouds.5 mph47%29.71 "Hg5 mi
12:40 PM95 °FScattered clouds.3 mph47%29.71 "Hg5 mi
12:10 PM95 °FScattered clouds.3 mph47%29.74 "Hg5 mi
11:40 AM95 °FScattered clouds.5 mph47%29.74 "Hg5 mi
10:40 AM93 °FPassing clouds.5 mph49%29.77 "Hg5 mi
10:10 AM91 °FPassing clouds.6 mph52%29.77 "Hg5 mi
9:40 AM90 °FPassing clouds.6 mph55%29.77 "Hg4 mi
7:40 AM82 °FScattered clouds.6 mph66%29.74 "Hg4 mi
7:10 AM81 °FScattered clouds.2 mph70%29.74 "Hg4 mi
6:40 AM79 °FScattered clouds.3 mph74%29.74 "Hg4 mi
6:10 AM79 °FPassing clouds.2 mph79%29.71 "Hg4 mi
5:40 AM79 °FPassing clouds.5 mph79%29.71 "Hg4 mi
5:10 AM81 °FPassing clouds.2 mph70%29.71 "Hg4 mi
Weather by CustomWeather, © 2014

See weather overviewHow to use our weather pages